Location: Unspecified
(0.0000°N, 0.0000°E)
Time: 15:29:04
(UTC+01:00)

H-2A R/B - Visible Passes

Search period start: 23 November 2014 00:00
Search period end: 03 December 2014 00:00
Orbit: 260 x 33582 km, 28.1° (Epoch: 21 November)

Date Brightness Start Highest point End Pass type
(mag) Time Alt. Az. Time Alt. Az. Time Alt. Az.
23 Nov 5.8 01:55:08 43° ENE 01:55:08 43° ENE 10:41:25 10° E visible
25 Nov 5.3 03:05:14 71° NNE 03:05:14 71° NNE 12:04:09 10° E visible
27 Nov 5.5 04:15:13 48° WNW 12:29:52 74° NE 13:20:42 10° ESE visible
29 Nov 6.1 05:25:04 22° WNW 14:08:22 87° SW 14:34:25 10° SE visible
30 Nov 6.5 01:04:58 26° ENE 01:04:58 26° ENE 09:39:26 10° E visible
02 Dec 6.0 02:14:38 51° NE 02:14:38 51° NE 11:06:14 10° E visible
